Date,TemperatureHighF,TemperatureAvgF,TemperatureLowF,DewpointHighF,DewpointAvgF,DewpointLowF,HumidityHigh,HumidityAvg,HumidityLow,PressureMaxIn,PressureMinIn,WindSpeedMaxMPH,WindSpeedAvgMPH,GustSpeedMaxMPH,PrecipitationSumIn
2013-7-1,76.9,66.8,59.2,56.2,52.6,47.6,87,62,40,29.65,29.44,13,2,31,0.00
2013-7-2,71.0,60.0,51.1,56.2,49.0,45.5,92,69,41,29.74,29.53,8,3,16,0.00
2013-7-3,72.7,60.3,50.4,51.7,49.3,46.1,93,69,44,29.94,29.75,6,2,12,0.00
2013-7-4,64.7,59.0,51.7,49.3,46.0,42.8,85,63,47,30.04,29.89,9,3,22,0.00
2013-7-5,69.0,56.9,46.6,54.2,48.9,46.0,99,77,50,30.11,29.96,7,2,23,0.00
2013-7-6,76.0,62.1,52.1,50.9,48.3,46.6,82,63,40,29.98,29.75,7,2,14,0.00
2013-7-7,75.1,65.7,55.9,52.8,48.8,45.4,74,55,38,29.75,29.52,10,3,21,0.00
2013-7-8,62.9,56.7,52.9,55.6,52.2,49.0,98,85,72,29.76,29.55,8,2,11,0.00
2013-7-9,62.2,55.6,50.1,54.2,52.0,49.8,100,88,69,30.04,29.76,8,4,16,0.00
2013-7-10,56.8,53.3,48.4,52.4,51.3,47.8,99,93,82,30.11,30.03,8,4,16,0.00
2013-7-11,71.8,59.9,51.9,56.2,53.1,50.3,99,80,55,30.15,30.06,6,1,13,0.00
2013-7-12,76.9,66.0,54.8,51.0,46.4,34.0,78,54,21,30.10,29.95,5,3,14,0.00
2013-7-13,76.9,67.9,58.9,49.1,45.5,38.4,64,46,25,30.04,29.97,6,2,10,0.00
2013-7-14,76.9,76.9,76.1,53.2,46.5,41.3,45,35,28,30.06,30.02,9,4,16,0.00
2013-7-15,76.9,71.2,63.7,59.1,54.7,52.1,80,57,42,30.18,30.06,8,2,17,0.00
2013-7-16,67.5,63.4,59.7,58.3,55.9,52.8,90,77,64,30.18,30.09,7,3,14,0.00
2013-7-17,69.9,62.1,57.0,57.0,54.7,52.4,94,78,55,30.13,30.07,8,3,18,0.00
2013-7-18,69.8,62.5,57.8,58.0,55.1,52.0,98,78,55,30.18,30.07,6,1,10,0.00
2013-7-19,58.2,57.3,55.5,58.0,57.0,54.4,100,99,96,30.17,30.09,12,5,23,0.00
2013-7-20,62.2,55.7,52.3,58.4,53.9,52.1,100,94,78,30.17,30.13,10,6,20,0.00
2013-7-21,67.3,59.2,53.0,55.6,53.4,51.9,97,82,60,30.21,30.15,8,2,13,0.00
2013-7-22,73.2,61.6,50.9,56.3,53.7,49.5,96,77,55,30.26,30.11,7,2,13,0.00
2013-7-23,76.9,66.4,56.7,59.5,56.6,53.8,92,72,50,30.16,30.02,7,3,18,0.00
2013-7-24,72.8,65.8,60.5,62.1,59.3,56.6,91,80,68,30.05,29.98,10,3,18,0.00
2013-7-25,73.2,64.6,57.5,59.7,54.8,49.1,95,73,44,30.07,29.99,7,3,15,0.00
2013-7-26,72.9,63.7,52.3,57.7,53.9,49.9,93,72,54,30.19,30.07,10,4,20,0.00
2013-7-27,76.9,68.2,57.0,60.6,58.2,54.7,94,72,52,30.27,30.19,8,3,17,0.00
2013-7-28,76.9,71.0,60.4,61.6,55.6,47.9,85,61,36,30.22,30.02,7,3,16,0.00
2013-7-29,76.9,71.1,64.9,59.9,57.6,54.5,78,64,46,30.13,30.03,10,4,24,0.00
2013-7-30,75.0,66.4,57.3,58.7,55.6,53.6,89,69,50,30.20,30.09,10,3,17,0.00
2013-7-31,76.9,67.3,54.5,58.6,54.2,50.7,92,66,40,30.17,29.99,7,2,15,0.00